Weather History for Madison, WI

Change the Weather History Date:

Wednesday, October 9, 2013

  Actual Average Record
Temperature  
Mean Temperature 58 °F 51 °F  
Max Temperature 72 °F 62 °F 85 °F (2010)
Min Temperature 44 °F 41 °F 20 °F (1964)
Degree Days  
Heating Degree Days 7 14  
Month to date heating degree days 44 113  
Since 1 July heating degree days 201 321  
Cooling Degree Days 0 0  
Month to date cooling degree days 2 0  
Year to date cooling degree days 709 564  
Growing Degree Days 10 (Base 50)    
Moisture  
Dew Point 46 °F    
Average Humidity 59    
Maximum Humidity 86    
Minimum Humidity 31    
Precipitation  
Precipitation 0.00 in 0.07 in 1.10 in (1932)
Month to date precipitation 0.80 0.70  
Year to date precipitation 40.47 28.65  
Snow  
Snow 0.00 in 0.00 in 0.30 in (1925)
Month to date snowfall 0.0 0.0  
Since 1 July snowfall 0.0 0.0  
Since 1 September snowfall 0.0 0.0  
Snow Depth 0.00 in    
Sea Level Pressure  
Sea Level Pressure 30.17 in    
Wind  
Wind Speed 5 mph (South)    
Max Wind Speed 15 mph    
Max Gust Speed 29 mph    
Visibility 10 miles    
Events      
T = Trace of Precipitation, MM = Missing Value Source: NWS Daily Summary

Daily Weather History Graph

Daily Weather History Graph

Search for Another Location

Airport:

Trip Planner

Search our weather history database for the weather conditions in past years. The results will help you decide how hot, cold, wet, or windy it might be!

Date:

Astronomy

Oct. 09, 2013 Rise Set
Actual Time 7:04 AM CDT 6:24 PM CDT
Civil Twilight 6:35 AM CDT 6:52 PM CDT
Nautical Twilight 6:02 AM CDT 7:25 PM CDT
Astronomical Twilight 5:29 AM CDT 7:58 PM CDT
Moon 12:05 PM CDT (10/9) 9:52 PM CDT (10/9)
Length of Visible Light 12h 16m
Length of Day
11h 19m
Waxing Crescent, 25% of the Moon is Illuminated
Oct 9
Waxing Crescent
Oct 11
First Quarter
Oct 18
Full
Oct 26
Last Quarter
Nov 3
New

Hourly Weather History & Observations

Time (CDT) Temp. Dew Point Humidity Pressure Visibility Wind Dir Wind Speed Gust Speed Precip Events Conditions
12:53 AM 57.9 °F 46.9 °F 67% 30.12 in 10.0 mi SSW 3.5 mph - N/A   Clear
1:53 AM 55.9 °F 46.9 °F 72% 30.13 in 10.0 mi Calm Calm - N/A   Clear
2:53 AM 50.0 °F 46.9 °F 89% 30.14 in 10.0 mi Calm Calm - N/A   Clear
3:53 AM 51.1 °F 45.0 °F 80% 30.16 in 10.0 mi Calm Calm - N/A   Clear
4:53 AM 52.0 °F 45.0 °F 77% 30.17 in 10.0 mi Calm Calm - N/A   Clear
5:53 AM 51.1 °F 46.0 °F 83% 30.18 in 10.0 mi SSE 3.5 mph - N/A   Clear
6:53 AM 51.1 °F 46.0 °F 83% 30.20 in 10.0 mi Calm Calm - N/A   Clear
7:53 AM 54.0 °F 46.9 °F 77% 30.21 in 10.0 mi South 5.8 mph - N/A   Clear
8:53 AM 57.0 °F 48.9 °F 74% 30.21 in 10.0 mi South 6.9 mph - N/A   Clear
9:53 AM 61.0 °F 48.9 °F 64% 30.21 in 10.0 mi South 8.1 mph - N/A   Clear
10:53 AM 66.0 °F 46.9 °F 50% 30.22 in 10.0 mi SSW 10.4 mph - N/A   Clear
11:53 AM 68.0 °F 48.0 °F 49% 30.20 in 10.0 mi SSW 11.5 mph - N/A   Clear
12:53 PM 69.1 °F 46.0 °F 44% 30.19 in 10.0 mi South 10.4 mph - N/A   Clear
1:53 PM 71.1 °F 45.0 °F 39% 30.17 in 10.0 mi South 10.4 mph - N/A   Clear
2:53 PM 72.0 °F 43.0 °F 35% 30.16 in 10.0 mi South 8.1 mph - N/A   Clear
3:53 PM 72.0 °F 43.0 °F 35% 30.14 in 10.0 mi South 9.2 mph - N/A   Clear
4:53 PM 71.1 °F 39.9 °F 32% 30.13 in 10.0 mi SSE 11.5 mph - N/A   Clear
5:53 PM 66.0 °F 41.0 °F 40% 30.13 in 10.0 mi South 4.6 mph - N/A   Clear
6:53 PM 55.9 °F 46.0 °F 69% 30.14 in 10.0 mi Calm Calm - N/A   Clear
7:53 PM 54.0 °F 46.0 °F 75% 30.15 in 10.0 mi Calm Calm - N/A   Clear
8:53 PM 57.0 °F 45.0 °F 64% 30.15 in 10.0 mi SE 8.1 mph - N/A   Clear
9:53 PM 55.9 °F 46.0 °F 69% 30.16 in 10.0 mi South 4.6 mph - N/A   Clear
10:53 PM 55.0 °F 46.0 °F 72% 30.15 in 10.0 mi South 4.6 mph - N/A   Clear
11:53 PM 54.0 °F 46.0 °F 75% 30.15 in 10.0 mi SSE 3.5 mph - N/A   Clear